Regional Weather Roundup
Issued by NWS Cleveland, OH

Home | Current Version | Previous Version | Graphics & Text | Print | Product List | Glossary On
Versions: 1 2 3 4 5 6 7 8 9 10 11 12 13 14 15 16 17 18 19 20 21 22 23 24 25 26 27 28 29 30 31 32 33 34 35 36 37 38 39 40 41 42 43 44 45 46 47 48 49 50
000
ASUS41 KCLE 281410
RWRCLE
OHIO REGIONAL WEATHER ROUNDUP
NATIONAL WEATHER SERVICE CLEVELAND, OH
1000 AM EDT TUE MAR 28 2017

NOTE: "FAIR" INDICATES FEW OR NO CLOUDS BELOW 12,000 FEET WITH NO
SIGNIFICANT WEATHER AND/OR OBSTRUCTIONS TO VISIBILITY.

OHZ001>008-015>018-024>027-034-035-043-044-281500-
   NORTHWEST OHIO

CITY           SKY/WX    TMP DP  RH WIND       PRES   REMARKS
DEFIANCE       CLOUDY    47  43  86 N10       30.01R
FINDLAY        CLOUDY    46  41  82 NE13      29.98R
TOLEDO EXPRESS CLOUDY    44  43  96 NE9       30.00R FOG
TOLEDO EXEC    CLOUDY    45  42  89 NE8       30.02R
LIMA           CLOUDY    47  47 100 NE10      29.98R FOG
$$

OHZ009>014-019>023-028>033-038-089-281500-
   NORTHEAST OHIO

CITY           SKY/WX    TMP DP  RH WIND       PRES   REMARKS
CLE-HOPKINS    CLOUDY    44  40  85 N9        29.99R FOG
CLE-LAKEFRONT  CLOUDY    42  40  92 NE5       29.96R FOG
CUY CO. ARPT   DRIZZLE   46  45  93 NE8       29.96R FOG
LORAIN-ELYRIA  CLOUDY    43  39  86 N10       29.98R
ASHTABULA      CLOUDY    47  47 100 N5        29.94R FOG
AKRON-CANTON   CLOUDY    51  48  89 N12       29.91R FOG
WOOSTER        LGT RAIN  47  46  97 N16       29.94R FOG
MANSFIELD      FOG       45  45 100 N10       29.95R VSB 3/4
YOUNGSTOWN     LGT RAIN  50  48  93 N9        29.92R FOG
$$

OHZ042-051>053-060>062-070>072-077>081-281500-
  SOUTHWEST OHIO

CITY           SKY/WX    TMP DP  RH WIND       PRES   REMARKS
CINC-COVINGTON CLOUDY    55  53  93 N13       29.94R FOG
CINC-LUNKEN    CLOUDY    57  55  93 N12       29.94R
HAMILTON       CLOUDY    56  54  93 N6        29.95R
DAYTON         CLOUDY    53  51  93 N14       29.95R
WRIGHT-PAT AFB CLOUDY    54  54 100 N9        29.94R FOG
DAYTON GENERAL CLOUDY    54  52  93 N15       29.93R FOG
WILMINGTON     LGT RAIN  56  55  97 NW6       29.92R FOG
$$

OHZ036-037-039>041-045>050-054>059-063>069-073>076-082>088-281500-
  CENTRAL AND SOUTHEAST OHIO

CITY           SKY/WX    TMP DP  RH WIND       PRES   REMARKS
COLUMBUS       CLOUDY    56  54  93 N10       29.92R
OSU AIRPORT    LGT RAIN  53  52  96 N12       29.93R
BOLTON FIELD   CLOUDY    54  54 100 N10       29.93R FOG
RICKENBACK AFB CLOUDY    54  54 100 N7        29.92R FOG
NEWARK         CLOUDY    56  52  86 N10       29.91R
MARION         CLOUDY    47  44  90 N15       29.96R FOG
LANCASTER      CLOUDY    59  56  89 NW9       29.92R FOG
ZANESVILLE     CLOUDY    57  53  86 NW7       29.90R
NEW PHILLY     NOT AVBL
$$




USA.gov is the U.S. government's official web portal to all federal, state and local government web resources and services.